Regional Weather Roundup
Issued by NWS

Home | Current Version | Previous Version | Text Only | Print | Product List | Glossary On
Versions: 1 2 3 4 5 6 7 8 9 10 11 12 13 14 15 16 17 18 19 20 21 22 23 24 25 26 27
000
ASUS45 KTFX 291110
RWRMT
MONTANA REGIONAL WEATHER ROUNDUP
NATIONAL WEATHER SERVICE GREAT FALLS MT
500 AM MDT THU SEP 29 2016

NOTE: "FAIR" INDICATES FEW OR NO CLOUDS BELOW 12000 FEET WITH NO
SIGNIFICANT WEATHER AND/OR OBSTRUCTIONS TO VISIBILITY.

MTZ001>007-043-291200-
WEST OF THE DIVIDE

CITY           SKY/WX    TMP DP  RH WIND       PRES   REMARKS
KALISPELL      CLEAR     47  43  86 NW6       30.04R
MISSOULA       CLEAR     47  44  90 NW3       30.06R
BUTTE          CLEAR     39  35  86 SE6       30.21S
MULLAN PASS    CLEAR     57  39  51 S7        30.12F
ANACONDA         N/A     48  36  61 S6        30.16F
DEER LODGE       N/A     43  37  81 CALM      30.17S
EUREKA           N/A     48  43  81 CALM      30.07S
HAMILTON         N/A     52  39  62 S7        30.06S
LIBBY            N/A     45  43  93 CALM      30.03R
PLAINS           N/A     45  40  82 CALM      30.02R
RONAN            N/A     45  41  86 CALM      30.07R
THOMPSON FALLS   N/A     44  43  97 CALM      30.05S
$$

MTZ008-052>055-291200-
SOUTHWEST MONTANA

CITY           SKY/WX    TMP DP  RH WIND       PRES   REMARKS
BOZEMAN        CLEAR     41  39  93 S3        30.18S
DILLON           N/A     49  36  61 S9        30.20S
W YELLOWSTONE    N/A     32  32 100 CALM      30.34S
ENNIS          CLEAR     52  37  58 S6        30.26S
THREE FORKS      N/A     42  21  43 CALM      30.15R
TWIN BRIDGES     N/A     44  36  73 E3        30.16S
$$

MTZ009-010-012-014-046-048-049-054-291200-
EAST SLOPES AND CENTRAL MONTANA

CITY           SKY/WX    TMP DP  RH WIND       PRES   REMARKS
CUT BANK       CLEAR     37  37 100 NW7       30.11S WCI  32
GREAT FALLS    CLEAR     44  41  89 W5        30.11F
MALMSTROM AFB  CLEAR     45  43  91 S5        30.11S
HELENA         CLEAR     48  42  80 CALM      30.14S
CHOTEAU          N/A     46  43  87 SW7       30.12S
CONRAD           N/A     37  37 100 CALM      30.11S
$$

MTZ011-013-016-021-045-047-050-051-291200-
NORTH CENTRAL MONTANA

CITY           SKY/WX    TMP DP  RH WIND       PRES   REMARKS
HAVRE          CLEAR     41  41 100 SW7       30.09S
LEWISTOWN      CLEAR     45  42  89 SE5       30.13S
N BAR RANCH      N/A     64  39  39 SW12G20   30.16S
CHINOOK          N/A     48  48 100 CALM      30.08F
$$

MTZ017>020-022>027-061-062-291200-
NORTHEAST MONTANA

CITY           SKY/WX    TMP DP  RH WIND       PRES   REMARKS
GLASGOW        CLEAR     55  47  74 SE14      30.12S
JORDAN           N/A     58  48  69 E8        30.12S
SIDNEY         CLEAR     49  39  68 S6        30.25S
WOLF POINT     CLEAR     53  44  71 E8        30.18S
PLENTYWOOD       N/A     54  37  54 SE9       30.24S
POPLAR           N/A     52  39  62 E7        30.20S
SCOBEY           N/A     53  38  56 SE9       30.17F
$$

MTZ028>42-056>058-291200-
SOUTHCENTRAL AND SOUTHEAST MONTANA

CITY           SKY/WX    TMP DP  RH WIND       PRES   REMARKS
BAKER          CLEAR     50  35  56 SE12      30.27R
BILLINGS       CLEAR     53  48  83 SW8       30.14F
LIVINGSTON     CLEAR     42  41  96 CALM      30.20S
MILES CITY     CLEAR     59  42  53 SE13G22   30.17F
BIG TIMBER     CLEAR     48  46  93 W12       30.21S
EKALAKA          N/A     54  37  52 SE14      30.21F
FORSYTH          N/A     57  48  72 E6        30.12S
LAUREL           N/A     47  44  89 CALM      30.12S
ROUNDUP          N/A     49  44  83 S10       30.04S
$$

REGIONAL REPORTS...DAKOTAS

CITY           SKY/WX    TMP DP  RH WIND       PRES   REMARKS
WILLISTON      CLEAR     53  40  61 SE8       30.27S
MINOT          CLEAR     43  42  97 SE7       30.35R
DICKINSON      CLEAR     45  41  86 S17       30.28F
BEACH            N/A     50  37  62 SE15      30.28F
CROSBY           N/A     48  48 100 SE10      30.29S
WATFORD CITY   HAZE      46  41  81 E8        30.28F VSB 1
BISMARCK       CLEAR     44  42  93 SE6       30.39S
GRAND FORKS    CLOUDY    46  43  89 SE3       30.46R
FARGO          CLOUDY    47  45  93 CALM      30.46R
BUFFALO SD       N/A     49  41  74 SE10      30.23S
RAPID CITY     CLEAR     41  34  76 SE7       30.32S
$$

REGIONAL REPORTS...WYOMING/IDAHO/WASHINGTON

CITY           SKY/WX    TMP DP  RH WIND       PRES   REMARKS
GILLETTE       CLEAR     53  43  68 S13       30.25S
SHERIDAN       CLEAR     48  38  68 CALM      30.18S
BUFFALO WY     CLEAR     55  38  52 SE12      30.24S
CODY           CLEAR     57  39  51 SW6       30.22S
YELLOWSTONE LA   N/A     33  33 100 CALM      30.42R
IDAHO FALLS    CLOUDY    53  47  79 N8        30.20R
SALMON         CLEAR     39  37  93 CALM      30.15R
BOISE          PTCLDY    74  38  27 SE10      29.92S
SPOKANE        MOCLDY    55  40  56 CALM      29.96F
$$

REGIONAL REPORTS...ALBERTA

CITY           SKY/WX    TMP DP  RH WIND       PRES   REMARKS
EDMONTON       PTCLDY    34  30  86 E2        30.20F
CALGARY        MOCLDY    41  36  81 SE5       30.14S
LETHBRIDGE     MOCLDY    36  36 100 W5        30.12S
MEDICINE HAT   CLEAR     43  39  87 NE5       30.10F
WATERTON GATE    N/A     32  32 100 NE2         N/A
CARDSTON         N/A     37  36  93 S2          N/A
MILK RIVER       N/A     37  37 100 NW7         N/A
$$

REGIONAL REPORTS...SASKATCHEWAN

CITY           SKY/WX    TMP DP  RH WIND       PRES   REMARKS
SWIFT CURRENT  CLEAR     45  43  93 E7        30.13S
REGINA         MOCLDY    54  43  66 SE10      30.22S
SASKATOON      MOCLDY    46  46 100 NE9       30.22F
CYPRESS HILLS    N/A     48  45  87 S1          N/A
VAL MARIE        N/A     45  43  93 N2          N/A
ROCKGLEN         N/A     52  43  71 S15G21      N/A
ASSINIBOIA       N/A     41  36  81 NE3         N/A
$$




USA.gov is the U.S. government's official web portal to all federal, state and local government web resources and services.